www.pogodaiklimat.ru

Погода и климат >> Архив погоды >> Парагвай >> Асунсьон


ПОГОДА в Асунсьоне

  • Прогноз погоды в Асунсьоне
  • Монитор погоды в Асунсьоне

АРХИВ ПОГОДЫ в Асунсьоне

Время (UTC), дата Ветер
(напр.,м/с)
 
Видим.   Явления Облачность Т
(С)
Тd
(С)
f
(%)
Тe
(С)
Тes
(С)
Комфортность P
(гПа)
Po
(гПа)
Тmin
(С)
Tmax
(С)
R
(мм)
R24
(мм)
S
(см)
09 15.08 штиль 0 12 км дымка 4/0
[Cs]
+7.2 +4.4 82 +6 +6 1021.5 1011.2
12 15.08 В 2 20 км 4/0
[Ci fib]
+15.4 +8.5 63 +15 +18 1022.8 1012.7 +6.6
15 15.08 В 5 20 км ясно +20.8 +9.7 49 +22 +30 комфорт 1022.3 1012.5
18 15.08 СВ 4 20 км 3/0
[Ac trans]
+25.2 +10.7 40 +26 +31 жарко 1018.8 1009.2
21 15.08 В 3 20 км 3/0
[Ci fib]
+24.6 +12.9 48 +27 +27 жарко 1017.9 1008.3
00 16.08 В 3 20 км 3/0
[Ci fib]
+20.0 +13.2 65 +22 +22 комфорт 1018.6 1008.9 +26.2
03 16.08 ЮВ 2 20 км ясно +17.2 +11.5 69 +18 +18 1018.4 1008.7
06 16.08 В 2 20 км ясно +21.4 +14.4 64 +24 +24 комфорт 1017.6 1007.9
09 16.08 В 4 20 км ясно +21.4 +14.8 66 +24 +24 комфорт 1016.3 1006.6
12 16.08 В 5 20 км 9/0
[Cs]
+22.4 +13.0 55 +25 +26 комфорт 1017.2 1007.5 +15.4
15 16.08 СВ 7 20 км 5/0
[Cs]
+28.4 +12.1 36 +29 +32 жарко 1016.2 1006.7
18 16.08 СВ 7 20 км 8/0
[Cs]
+31.0 +14.3 36 +33 +35 душно 1013.3 1003.9
21 16.08 СВ 4 15 км дым 9/0
[Cs]
+31.0 +12.5 32 +32 +32 жарко 1011.5 1002.1
00 17.08 В 4 9000 м дым 6/0
[Cs]
+26.2 +13.8 46 +28 +28 жарко 1011.2 1001.7 +31.8
03 17.08 СВ 6 9000 м дым 6/0
[Cs]
+24.4 +11.1 43 +26 +26 жарко 1010.9 1001.3
06 17.08 СВ 5 20 км 6/0
[Cs]
+22.8 +8.4 40 +24 +24 комфорт 1009.6 1000.0
09 17.08 СВ 6 20 км 5/0
[Cs]
+22.2 +8.2 41 +23 +23 комфорт 1009.0 999.4
12 17.08 СВ 7 12 км дым 5/0
[Cs]
+23.4 +9.4 41 +25 +26 комфорт 1009.4 999.8 +22.0
15 17.08 СВ 7 20 км 4/0
[Cs]
+28.2 +12.3 37 +29 +32 жарко 1009.3 999.9
18 17.08 СВ 6 20 км 5/0
[Cs]
+31.0 +11.0 29 +31 +34 жарко 1005.9 996.6
21 17.08 СВ 1 9000 м дым 8/0
[Cs]
+30.2 +17.1 45 +34 +34 очень
душно
1005.6 996.2
00 18.08 штиль 0 7000 м дым 6/0
[Ac trans Cs]
+23.6 +16.3 64 +27 +27 жарко 1007.8 998.2 +31.6
06 18.08 СВ 3 12 км мгла 8/0 2000 м
[Ac und]
+25.8 +14.4 49 +28 +28 жарко 1007.9 998.4
09 18.08 штиль 0 12 км дым 9/1 1000 м
[Sc Ac As]
+22.0 +15.6 67 +26 +26 душно 1008.8 999.2
12 18.08 Ю 3 8000 м дым 6/0
[Ci fib]
+22.2 +16.7 71 +27 +29 душно 1010.6 1000.9 +21.2
15 18.08 Ю 4 8000 м дым 6/0
[Ac trans]
+26.4 +16.1 53 +30 +35 душно 1011.5 1001.9
18 18.08 Ю 8 15 км дым 9/0
[Ci fib]
+26.6 +16.1 53 +30 +31 душно 1010.8 1001.3
21 18.08 Ю 10 20 км 9/3 1000 м
[Sc Ac As]
+22.2 +15.1 64 +26 +26 душно 1012.8 1003.2
00 19.08 Ю 9 20 км 8/0 2000 м
[Ac und]
+19.0 +13.4 70 +19 +19 1015.6 1005.9 +28.2
03 19.08 Ю 7 20 км 6/0 2000 м
[Ac und]
+17.2 +11.5 69 +16 +16 1017.3 1007.5
06 19.08 Ю 5 20 км 6/0 2000 м
[Ac und]
+16.2 +10.1 67 +15 +15 1018.1 1008.3
09 19.08 ЮЗ 6 20 км 6/0 2000 м
[Ac und]
+13.2 +7.3 67 +11 +11 1019.3 1009.5
12 19.08 Ю 5 20 км 8/0
[Cs]
+13.2 +8.6 74 +11 +13 1020.5 1010.4 +12.2
15 19.08 Ю 7 20 км ясно +19.4 +3.8 36 +19 +24 1020.1 1010.2
18 19.08 Ю 8 20 км 3/0
[Cc]
+23.2 +1.3 24 +22 +24 комфорт 1018.4 1008.7
21 19.08 Ю 8 20 км 1/0
[Ac trans]
+20.4 +5.1 37 +21 +21 комфорт 1018.4 1008.6
00 20.08 ЮВ 3 10 км дым 1/0 2000 м
[Ac trans]
+16.1 +5.6 50 +16 +16 1019.7 1009.8 +23.6
03 20.08 Ю 4 12 км дым ясно +13.4 +6.0 61 +12 +12 1020.3 1010.2
06 20.08 ЮВ 4 20 км ясно +11.2 +6.5 73 +9 +9 1020.5 1010.4
09 20.08 ЮЗ 4 20 км 1/0
[Ci fib]
+10.0 +5.9 76 +7 +7 1021.6 1011.4
12 20.08 Ю 5 20 км ясно +11.6 +6.0 68 +9 +11 1022.9 1012.8 +9.0
15 20.08 Ю 2 12 км дым ясно +20.4 +10.2 52 +23 +36 комфорт 1022.7 1012.9
18 20.08 Ю 5 20 км ясно +25.0 +6.9 31 +25 +31 комфорт 1021.3 1011.6
21 20.08 Ю 6 15 км дым ясно +24.4 +6.1 31 +24 +24 комфорт 1020.9 1011.2
00 21.08 Ю 4 10 км дым ясно +19.2 +7.1 45 +20 +20 1022.0 1012.1 +25.6
03 21.08 Ю 4 12 км дым ясно +16.6 +7.2 54 +16 +16 1022.4 1012.5
06 21.08 Ю 3 20 км ясно +14.2 +7.5 64 +13 +13 1021.9 1011.9
09 21.08 Ю 2 20 км ясно +12.4 +9.2 81 +11 +11 1021.6 1011.5
12 21.08 штиль 0 20 км ясно +14.2 +9.5 73 +14 +19 1023.0 1013.0 +10.6
15 21.08 ЮВ 2 20 км ясно +24.0 +11.2 45 +25 +40 комфорт 1022.9 1013.2
18 21.08 ЮВ 2 20 км ясно +27.8 +5.3 24 +27 +36 жарко 1019.8 1010.2
21 21.08 ЮВ 2 20 км ясно +26.2 +3.7 23 +25 +25 комфорт 1018.2 1008.6
00 22.08 ЮВ 3 20 км ясно +19.6 +6.6 43 +21 +21 комфорт 1019.2 1009.5 +28.2
03 22.08 ЮВ 3 20 км ясно +18.0 +5.9 45 +18 +18 1019.0 1009.3
06 22.08 ЮВ 4 20 км ясно +18.0 +8.0 52 +18 +18 1018.2 1008.5

 

Местоположение метеостанции Асунсьон (Парагвай): широта -25.25 долгота -57.51 высота над уровнем моря 101 м.

В архиве по умолчанию представлена погода в Асунсьоне за последнюю неделю. Архивные данные за месяц целиком и за предыдущие месяцы, начиная с января 2011 года, Вы можете получить, выбрав интересующий диапазон дат из раскрывающегося списка и нажав кнопку "Ввод!".


*Определитесь, кто Вы:
робот инопланетянин человек

Внимание! Время в таблицах - всемирное. Для получения местного времени необходимо прибавить поправку, которая равна -4 ч.

Смотрите также архив погоды в соседних городах и на ближайших метеорологических станциях:

Погода в Парагуари (Парагвай) (57 км)
Погода в Коронель-Овьедо (Парагвай) (118 км)
Погода в Куйкуйо (Парагвай) (120 км)
Погода в Вильяррике (Парагвай) (122 км)
Погода в Сан Эстанислао (Парагвай) (128 км)
Погода в Формосе (Аргентина) (128 км)
Погода в Сан-Педро (Парагвай) (139 км)
Погода в Грал Бругуез (Парагвай) (144 км)
Погода в Каасапе (Парагвай) (156 км)
Погода в Сан Хуан Батистута (Парагвай) (161 км)

Пояснения к столбцам:

Ветер - указаны скорость ветра в м/с - средняя за 10 мин, порывы в срок и между сроками (в фигурных скобках) и направление, откуда дует ветер: С - северный, СВ - северо-восточный, В - восточный, ЮВ - юго-восточный, Ю - южный, ЮЗ - юго-западный, З - западный, СЗ - северо-западный.
Видимость - горизонтальная дальность видимости в метрах или километрах. При видимости от 1 до 10 км при отсутствии осадков обычно наблюдается дымка, при ухудшении видимости до 1 км и менее - туман. В сухую погоду видимость может ухудшаться дымом, пылью или мглою.
Явления - указаны атмосферные явления, наблюдавшиеся в срок или в последний час перед сроком; фигурными скобками обозначены явления, наблюдавшиеся между сроками (за 1-3 часа до срока); квадратными скобками обозначены град или гололедные отложения с указанием их диаметра в мм.
Облачность - указаны через наклонную черту общая и нижняя облачность в баллах и высота нижней границы облаков в метрах; квадратными скобками обозначены формы облаков: Ci - перистые, Cs - перисто-слоистые, Cc - перисто-кучевые, Ac - высококучевые, As - высокослоистые, Sc - слоисто-кучевые, Ns - слоисто-дождевые, Cu - кучевые, Cb - кучево-дождевые. Подробнее классификацию облаков см. в Атласе облаков (PDF).
T - Температура воздуха - температура, измеренная на высоте 2 м над землей.
Td - Температура точки росы - температура, при понижении до которой содержащийся в воздухе водяной пар достигнет насыщения.
f - Относительная влажность воздуха - влажноcть воздуха, измеренная на высоте 2 м над землей.
Te - Эффективная температура - температура, которую ощущает одетый по сезону человек в тени. Характеристика душности погоды. При расчете учитывается влияние влажности воздуха и скорости ветра на теплоощущения человека.
Tes - Эффективная температура на солнце - температура, которую ощущает человек, с поправкой на солнечный нагрев. Характеристика знойности погоды. Зависит от высоты солнца над горизонтом, облачности и скорости ветра. Ночью, в пасмурную погоду, а также при ветре 12 м/с и более поправка равна нулю.
P - Атмосферное давление - приведенное к уровню моря атмосферное давление.
Po - Атмосферное давление - измеренное на уровне метеостанции атмосферное давление.
Tmin - Минимальная температура - минимум температуры воздуха на высоте 2 м над землей.
Tmax - Максимальная температура - максимум температуры воздуха на высоте 2 м над землей.
R - Количество осадков - Количество выпавших осадков за период времени, мм. При наведении курсора мыши на число - период времени, за который выпало указанное количество осадков.
R24 - Количество осадков - Количество выпавших осадков за 24 часа, мм.
S - Снежный покров - Высота снежного покрова, см. При наведении курсора мыши на число - состояние снежного покрова и степень покрытия местности в баллах.